• Join FlightAware (Why Join?)
  • Login
  • US Flag 
05:27PM EDT


 

Airport Tracker/Info


-or-


 

Live Flight TrackerFlight Track Log ✈ CPT8773 ✈ 02-May-2013 ✈ KCPR - KCOD

Flight Track Log - Related Links

Times and Time Zones

All times are in EDT time to prevent confusion due to time zone crossing. See the CPT8773 flight status page for this flight to view local times or setup timezone preferences in your user account.

Time Position Orientation Groundspeed Altitude Reporting Facility
EDT Latitude Longitude Course Direction KTS MPH feet Rate Location/Type
09:47AM 42.9431 -106.4942 308° West 124 143 7,200  Level Denver Center
09:48AM 42.9708 -106.5025 348° North 114 131 8,000 780 Climbing Denver Center
09:49AM 43.0044 -106.5133 347° North 112 129 8,800 660 Climbing Denver Center
09:50AM 43.0328 -106.5253 343° North 111 128 9,600 660 Climbing Denver Center
09:51AM 43.0835 -106.2669 308° West  Level FlightAware Approximate
09:51AM 43.0692 -106.5394 344° North 109 125 10,400  Level Denver Center
09:52AM 43.1068 -106.3077 308° West  Level FlightAware Approximate
09:52AM 43.0967 -106.5531 340° North 109 125 11,100  Level Denver Center
09:53AM 43.1256 -106.5658 342° North 113 130 11,800 420 Climbing Denver Center
09:54AM 43.1636 -106.5789 346° North 124 143 12,000 60 Climbing Denver Center
09:55AM 43.1997 -106.5939 343° North 137 158 12,000  Level Denver Center
09:56AM 43.2447 -106.6125 343° North 149 171 12,000  Level Denver Center
09:57AM 43.2806 -106.6328 338° Northwest 148 170 12,000  Level Denver Center
09:58AM 43.3044 -106.6778 306° West 150 173 12,000  Level Denver Center
09:59AM 43.3292 -106.7331 302° West 152 175 12,000  Level Denver Center
10:00AM 43.3544 -106.7769 308° West 154 177 12,000  Level Denver Center
10:01AM 43.3817 -106.8289 306° West 151 174 12,000  Level Denver Center
10:02AM 43.4061 -106.8736 307° West 152 175 12,000  Level Denver Center
10:03AM 43.4322 -106.9267 304° West 151 174 12,100  Climbing Denver Center
10:04AM 43.4558 -106.9714 306° West 150 173 12,100  Level Denver Center
10:05AM 43.4814 -107.0169 308° West 156 180 12,100  Level Denver Center
10:06AM 43.5092 -107.0706 306° West 154 177 12,100  Level Denver Center
10:07AM 43.5333 -107.1158 306° West 153 176 12,100  Level Denver Center
10:08AM 43.5539 -107.1631 301° West 148 170 12,100  Level Salt Lake Center
10:09AM 43.5772 -107.2050 308° West 144 166 12,100  Level Salt Lake Center
10:10AM 43.6031 -107.2572 304° West 147 169 12,100  Level Salt Lake Center
10:11AM 43.6247 -107.2986 306° West 144 166 12,100  Level Salt Lake Center
10:12AM 43.6517 -107.3472 307° West 142 163 12,100  Level Salt Lake Center
10:13AM 43.6747 -107.3908 306° West 145 167 12,100  Level Salt Lake Center
10:14AM 43.6964 -107.4339 305° West 144 166 12,100  Level Salt Lake Center
10:15AM 43.7228 -107.4856 305° West 145 167 12,100  Level Salt Lake Center
10:17AM 43.7458 -107.5292 306° West 146 168 12,100  Level Salt Lake Center
10:18AM 43.7714 -107.5789 305° West 144 166 12,100  Level Salt Lake Center
10:19AM 43.7931 -107.6233 304° West 144 166 12,100  Level Salt Lake Center
10:20AM 43.8189 -107.6725 306° West 143 165 12,100  Level Salt Lake Center
10:21AM 43.8411 -107.7161 305° West 143 165 12,100  Level Salt Lake Center
10:22AM 43.8625 -107.7581 305° West 142 163 12,100  Level Salt Lake Center
10:23AM 43.8883 -107.8075 306° West 141 162 12,100  Level Salt Lake Center
10:24AM 43.9108 -107.8514 305° West 143 165 12,100  Level Salt Lake Center
10:25AM 43.9358 -107.9008 305° West 142 163 12,100  Level Salt Lake Center
10:26AM 43.9581 -107.9442 305° West 142 163 12,100  Level Salt Lake Center
10:27AM 43.9803 -107.9847 307° West 141 162 12,100  Level Salt Lake Center
10:28AM 44.0056 -108.0322 307° West 139 160 12,100 -60 Level Salt Lake Center
10:29AM 44.0269 -108.0747 305° West 139 160 12,000 -60 Descending Salt Lake Center
10:30AM 44.0525 -108.1231 306° West 139 160 12,000  Level Salt Lake Center
10:31AM 44.0744 -108.1653 306° West 140 161 12,000  Level Salt Lake Center
10:32AM 44.0989 -108.2147 305° West 139 160 12,000  Level Salt Lake Center
10:33AM 44.1217 -108.2544 309° West 138 159 12,000  Level Salt Lake Center
10:34AM 44.1433 -108.2964 306° West 139 160 12,000  Level Salt Lake Center
10:35AM 44.1686 -108.3461 305° West 139 160 12,000  Level Salt Lake Center
10:36AM 44.1914 -108.3886 307° West 141 162 12,000  Level Salt Lake Center
10:37AM 44.2175 -108.4383 306° West 142 163 12,000  Level Salt Lake Center
10:38AM 44.2400 -108.4808 306° West 142 163 12,000  Level Salt Lake Center
10:39AM 44.2647 -108.5311 304° West 141 162 12,000  Level Salt Lake Center
10:40AM 44.2872 -108.5733 307° West 141 162 12,000  Level Salt Lake Center